FIREFLY ALPHA R/B, 60210

Orbit data source: Space-Track

FIREFLY ALPHA R/B, 60210 is space debris in SSO originally from a launch on Thu, 04 Jul 2024 UTC launched from the Air Force Western Test Range (AFWTR). Debris objects in space refer to the collection of defunct objects orbiting the Earth. Examples of debris include non-operational satellites, rocket bodies, and fragments generated from explosions, collisions, or faulty payload assembly.

Loading next visibility...
Identifier
60210, 2024-125H
Orbit
SSO
Country
Flag of USUS
Related business
Manufacturer
Firefly
Mission
Spacecraft
Bus & Motor
FIREFLY A2, Unknown motor
Mass
909 kg wet, 909 kg dry
Launch date (UTC)
2024-07-04 (2 years ago)
Launch vehicle
Unknown
Launch site
Air Force Western Test Range (AFWTR)
Object type
Payload
Rocket body
Debris
Shape & HBR
Cyl, 3.0 m
Radar Cross Section
9.508 m², Large (>1 m²)

Expand to show TLE details & history
Last TLE update: 7 hours ago

TLE from 7 hours ago
0 FIREFLY ALPHA R/B
1 60210U 24125H   26267.14379590  .00065390  00000-0  43221-3 0  9992
2 60210  97.1930 134.0464 0016713 158.7521 201.4442 15.75189781125501
Epoch: 2026-09-24T03:27Z
TLE epoch observation values (Epoch: 2026-09-24T03:27:03.965Z)
Latitude
-0.00006°
Longitude
79.2951°
Altitude
357.724 km
Speed
7.689 km/s
True Right ascension
08h 56m 11s
True Declination
0° 00' 00"
Sunlit
Object was in daylight at epoch
Visualization orbit readout
Latitude
Unknown
Longitude
Unknown
Altitude
Unknown
Speed
Unknown
Apparent Right ascension
Unknown
Apparent Declination
Unknown
Sunlit
N/A
Visualization observer readout
Local Sidereal Time
03:30:46
Azimuth
Unknown
Elevation
Unknown
Doppler factor
Unknown
Orbital elements
Apogee altitude
352.204 km
Perigee altitude
329.745 km
Semi-major axis
6,719.112 km
Eccentricity
0.00167
Inclination
97.193°
RAAN
134.0464°
Arg. of periapsis
158.7521°
True anomaly
201.37432°
Mean anomaly
201.4442°
Eccentric anomaly
201.40925°
Mean motion
3.94072 °/min
Orbital period
91.35 mins
BSTAR
0.00043221
Loading maneuver chart data...
Computing Atmospheric mass density...
Loading historical data...
Loading historical data...
Loading historical data...
Loading historical data...
Loading historical data...
Loading historical data...
Loading historical data...

Documentation

Showing up to 5 results
|